Regional Weather Roundup
Issued by NWS

Home | Current Version | Previous Version | Graphics & Text | Print | Product List | Glossary On
Versions: 1 2 3 4 5 6 7 8 9 10 11 12 13 14 15 16 17 18 19 20 21 22 23 24 25 26 27 28 29 30 31 32 33 34 35 36 37 38 39 40 41 42 43 44 45 46 47 48 49 50
000
ASUS43 KMKX 172300
RWRWI

WISCONSIN REGIONAL WEATHER ROUNDUP
NATIONAL WEATHER SERVICE MILWAUKEE/SULLIVAN WI
600 PM CDT TUE OCT 17 2017

NOTE: "FAIR" INDICATES FEW OR NO CLOUDS BELOW 12,000 FEET WITH NO
SIGNIFICANT WEATHER AND/OR OBSTRUCTIONS TO VISIBILITY.

WIZ001-002-006>008-014>016-023>028-180000-
NORTHWEST WISCONSIN

CITY           SKY/WX    TMP DP  RH WIND       PRES   REMARKS
SUPERIOR ARPT  CLEAR     67  41  37 SW6       29.87S
ASHLAND        CLEAR     64  41  42 S7        29.89F
HAYWARD        CLEAR     67  39  35 SW6       29.92S
SIREN          CLEAR     67  41  38 SW6       29.92S
CUMBERLAND     CLEAR     64  37  36 SW6       29.94S
RICE LAKE      CLEAR     68  40  36 S5        29.95S
CHETEK         CLEAR     68  44  41 SW5       29.95S
LADYSMITH      CLEAR     64  44  48 S5        29.97S
EAU CLAIRE     NOT AVBL
MENOMONIE      CLEAR     68  46  43 S5        29.95S
NEW RICHMOND   CLEAR     67  42  39 SW6       29.94F
OSCEOLA        CLEAR     69  43  39 S3        29.96S
$$

WIZ003>005-009-010-017-018-180000-
NORTH CENTRAL WISCONSIN

CITY           SKY/WX    TMP DP  RH WIND       PRES   REMARKS
MANITOWISH WTR CLEAR     64  40  42 SW6       29.94F
ARBOR VITAE    CLEAR     64  43  46 SW7       29.95S
WOODRUFF       CLEAR     64  43  46 SW7       29.95S
RHINELANDER    CLEAR     63  43  48 S6        29.97F
EAGLE RIVER    CLEAR     64  38  38 CALM      29.96S
LAND O LAKES   CLEAR     64  38  38 CALM      29.97F
PHILLIPS       CLEAR     65  44  46 SW7       29.95S
TOMAHAWK       CLEAR     62  44  51 CALM      29.97F
MEDFORD        CLEAR     63  45  51 S7        29.98S
MERRILL        CLEAR     67  45  45 SW5       29.98S
$$

WIZ029-030-035-036-043>047-180000-
CENTRAL WISCONSIN

CITY           SKY/WX    TMP DP  RH WIND       PRES   REMARKS
WAUSAU         CLEAR     63  47  55 S9        29.97S
MOSINEE        MOCLDY    59  46  63 S7        30.00S
MARSHFIELD     CLOUDY    61  43  51 S6        29.98S
STEVENS POINT  CLOUDY    64  45  50 SW6       30.01R
WAUPACA        PTCLDY    66  46  49 S3        30.01R
WAUTOMA        CLOUDY    66  46  48 S7        30.01S
WISC RAPIDS    CLOUDY    63  49  60 S5        30.01R
CAMP DOUGLAS   NOT AVBL
$$

WIZ011>013-019>022-031-037>040-048>050-180000-
NORTHEAST WISCONSIN

CITY           SKY/WX    TMP DP  RH WIND       PRES   REMARKS
ANTIGO         CLEAR     61  47  60 S6        29.99F
SHAWANO        CLOUDY    65  47  51 CALM      29.99S
OCONTO         CLEAR     61  49  64 S5        29.99S
STURGEON BAY   CLEAR     57  51  80 S8        30.02R
GREEN BAY      CLOUDY    63  50  62 S5        30.01R
MANITOWOC      CLOUDY    59  51  75 E3        30.03R
APPLETON       PTCLDY    63  45  51 SW7       30.00S
CLINTONVILLE   CLOUDY    64  46  52 S3        30.00R
OSHKOSH        CLOUDY    63  48  58 S6        30.01R
$$

WIZ032>034-041-042-053>061-180000-
SOUTHWEST WISCONSIN

CITY           SKY/WX    TMP DP  RH WIND       PRES   REMARKS
LA CROSSE      CLEAR     67  48  50 SE5       29.98S
SPARTA         CLEAR     66  47  49 S6        30.01S
VIROQUA        CLEAR     67  47  47 SW5       30.01F
BOSCOBEL       CLEAR     71  42  35 S8        30.01S
PRAIRIE DU CHI CLEAR     70  40  33 S7        30.01S
PLATTEVILLE    CLEAR     69  45  42 S10       30.06S
$$

WIZ056-057-062-063-064-067-068-180000-
SOUTH CENTRAL WISCONSIN

CITY           SKY/WX    TMP DP  RH WIND       PRES   REMARKS
REEDSBURG      CLEAR     67  47  48 SW5       30.01S
BARABOO/DELLS  CLEAR     66  43  43 SW9       30.02S
LONE ROCK      CLEAR     67  46  47 SW9       30.02S
MINERAL POINT  CLEAR     70  43  37 SW9       30.05S
MADISON        PTCLDY    68  44  42 S8G18     30.03F
MIDDLETON      CLEAR     70  42  36 SW8G17    30.04S
WATERTOWN      CLEAR     67  44  43 SW10G18   30.04R
MONROE         CLEAR     66  41  39 SW12      30.07S
JANESVILLE     CLEAR     66  43  42 SW14      30.07S
$$

WIZ051-052-058>065-066-070>072-180000-
SOUTHEAST WISCONSIN

CITY           SKY/WX    TMP DP  RH WIND       PRES   REMARKS
MILWAUKEE      PTCLDY    69  44  40 SW14G21   30.06S
WAUKESHA       CLEAR     66  43  42 SW14      30.06S
MILWAUKEE/TIMM CLEAR     68  37  32 SW10      30.05S
RACINE         CLEAR     67  43  41 SW12      30.08S
BURLINGTON     CLEAR     67  43  42 SW10      30.08S
KENOSHA        CLEAR     66  42  41 SW8       30.08S
FOND DU LAC    CLOUDY    66  44  45 SW5       30.02S
SHEBOYGAN      CLOUDY    63  48  58 SW5       30.03R
WEST BEND      CLEAR     66  43  42 SW7       30.03S
JUNEAU         CLEAR     66  46  47 S7        30.04S
$$

LSZ147-162-180000-
LAKE SUPERIOR

STATION/POSITION TIME  TEMP    WIND        PRES    WAVE
                       AIR SEA DIR/SP/G            HT/PER
                 (UTC) (F)     (DEG/KT/KT) (MB)    (FT/S)
W MID LAKE BUOY  2150   54 53              1012.5F   1/ 4
DEVILS ISLAND    2200   58     120/  5/  5 1012.1F
SAXON HARBOR     2240   60     200/  2/  4 1011.9F
$$

LMZ867-665-643>646-180000-
LAKE MICHIGAN

STATION/POSITION TIME  TEMP    WIND        PRES    WAVE
                       AIR SEA DIR/SP/G            HT/PER
                 (UTC) (F)     (DEG/KT/KT) (MB)    (FT/S)
S GREEN BAY BUOY 2100   62 58  190/ 10/ 12 1015.6
N MID LAKE BUOY  2150   60 59  190/ 17/ 19 1016.2F   4/ 7
NORTHPORT PIER   2240   59     170/  4/  7 1015.6S
KEWAUNEE LAKESHO 2230   58     180/  8/  9 1015.8R
SHEBOYGAN LAKESH 2200   69     240/ 12/ 14 1016.2F
PORT WASHINGTON  2240   70     250/  5/  9 1017.6S
MILWAUKEE LAKESH 2230   69     220/ 13/ 16   N/A
S MID LAKE BUOY  2150   63 62  220/ 14/ 17 1018.9S   4/ 6
KENOSHA   LAKESH 2200   71     230/  9/ 21 1018.3
$$

TC  - TEMPERATURE IN CELSIUS
VSB - VISIBILITY IN STATUTE MILES
WCI - WIND CHILL INDEX
HX  - HEAT INDEX





USA.gov is the U.S. government's official web portal to all federal, state and local government web resources and services.